FW4237 Weather Reports


Display with metric or nautical units.
time (UTC)temp
F
wind
direction
speed
MPH
gust
MPH
rain 1hr
in
rain 24hr
in
rain mn
in
humidity
%
barometer
mb
20260508033826 50 300 1.0 1.0 0.00 0.18 0.18 78 1012.4
20260508032821 50 299 1.0 1.0 0.00 0.18 0.18 76 1012.4
20260508031821 51 309 2.0 2.0 0.00 0.18 0.18 77 1012.4
20260508030820 49 295 5.0 6.0 0.00 0.18 0.18 80 1012.1
20260508025820 52 296 0.0 1.0 0.00 0.18 0.18 78 1012.1
20260508024820 48 304 0.0 1.0 0.00 0.18 0.18 79 1011.8
20260508023819 46 288 0.0 0.0 0.00 0.18 0.18 98 1011.8
20260508022818 46 297 2.0 2.0 0.00 0.18 0.18 99 1011.8
20260508021818 46 307 1.0 2.0 0.00 0.18 0.18 99 1011.4
20260508020815 47 301 0.0 0.0 0.00 0.18 0.18 99 1011.1
20260508015810 47 290 0.0 0.0 0.00 0.18 0.18 99 1011.1
20260508014810 48 301 0.0 0.0 0.00 0.18 0.18 99 1011.1
20260508013808 49 288 0.0 2.0 0.00 0.18 0.18 98 1011.1
20260508012803 50 288 0.0 0.0 0.00 0.18 0.18 99 1010.8
20260508011804 50 287 0.0 0.0 0.00 0.18 0.18 98 1010.8
20260508010803 50 288 0.0 0.0 0.00 0.18 0.18 98 1010.8
20260508005803 51 288 0.0 0.0 0.00 0.18 0.18 98 1010.4
20260508004802 51 306 1.0 1.0 0.00 0.18 0.18 98 1010.4
20260508003800 52 319 2.0 2.0 0.00 0.18 0.18 96 1010.4
20260508002800 54 308 2.0 2.0 0.00 0.18 0.18 95 1010.4
20260508001759 55 291 0.0 0.0 0.00 0.18 0.18 93 1010.4
20260508000757 57 290 0.0 0.0 0.00 0.18 0.18 91 1010.1
20260507235756 58 289 0.0 0.0 0.00 0.18 0.18 90 1010.1
20260507234751 57 289 0.0 0.0 0.00 0.18 0.18 92 1010.1
20260507233749 56 290 1.0 1.0 0.00 0.18 0.18 93 1010.1
20260507232745 56 277 0.0 0.0 0.00 0.18 0.18 93 1010.1
20260507231743 56 277 0.0 0.0 0.00 0.18 0.18 93 1010.1
20260507230743 56 276 0.0 0.0 0.00 0.18 0.18 92 1009.3
20260507225740 56 278 1.0 1.0 0.00 0.18 0.18 93 1009.3
20260507224738 56 288 0.0 0.0 0.00 0.18 0.18 93 1009.6
20260507223737 55 290 0.0 0.0 0.00 0.18 0.18 93 1009.6
20260507222736 55 310 0.0 0.0 0.00 0.18 0.18 94 1009.3
20260507221736 55 328 2.0 2.0 0.00 0.18 0.18 94 1009.3
20260507220734 55 326 2.0 2.0 0.00 0.18 0.18 93 1009.3
20260507215734 56 276 1.0 1.0 0.00 0.18 0.18 93 1009.3
20260507214734 56 279 0.0 0.0 0.00 0.18 0.18 94 1009.0
20260507213733 56 286 0.0 0.0 0.00 0.18 0.18 94 1009.0
20260507212732 56 286 1.0 1.0 0.00 0.18 0.18 94 1009.3
20260507211731 55 56 3.0 3.0 0.00 0.18 0.18 94 1009.3
20260507210730 56 73 4.0 5.0 0.00 0.18 0.18 95 1009.0
20260507205729 55 47 3.0 3.0 0.00 0.18 0.18 96 1009.3
20260507204728 55 67 3.0 5.0 0.00 0.18 0.18 97 1008.6
20260507203724 56 300 3.0 5.0 0.00 0.18 0.18 97 1009.0
20260507202723 55 309 1.0 2.0 0.00 0.18 0.18 98 1009.0
20260507201720 55 307 2.0 2.0 0.00 0.18 0.18 99 1009.0
20260507200719 55 284 3.0 3.0 0.00 0.18 0.18 99 1009.3
20260507195718 54 52 3.0 3.0 0.00 0.18 0.18 99 1009.6
20260507194718 53 333 3.0 3.0 0.00 0.18 0.18 99 1009.6
20260507193717 53 307 1.0 1.0 0.00 0.18 0.18 99 1009.6
20260507192716 53 308 1.0 1.0 0.00 0.18 0.18 99 1010.1
20260507191714 53 359 3.0 3.0 0.00 0.18 0.18 99 1010.1
20260507190714 53 348 2.0 2.0 0.00 0.18 0.18 99 1010.1
20260507185711 53 285 0.0 1.0 0.00 0.18 0.18 99 1010.4
20260507184711 53 81 3.0 5.0 0.00 0.18 0.18 99 1010.8
20260507183711 53 290 0.0 0.0 0.00 0.18 0.18 99 1010.8
20260507182711 53 54 4.0 5.0 0.00 0.18 0.18 99 1010.1
20260507181709 53 286 1.0 1.0 0.00 0.18 0.18 99 1010.1
20260507180709 53 315 1.0 1.0 0.00 0.18 0.18 99 1010.1
20260507175706 53 53 4.0 5.0 0.00 0.18 0.18 99 1010.4
20260507174701 53 280 0.0 0.0 0.07 0.17 0.17 99 1010.4
20260507173656 53 286 0.0 0.0 0.05 0.16 0.16 99 1010.4
20260507172655 53 294 0.0 0.0 0.07 0.15 0.15 99 1010.4
20260507171652 53 342 2.0 3.0 0.19 0.14 0.14 99 1010.4
20260507170652 53 317 1.0 1.0 0.05 0.11 0.11 99 1010.8
20260507165651 54 306 0.0 1.0 0.07 0.10 0.10 98 1010.4
20260507164649 54 302 0.0 0.0 0.07 0.08 0.08 98 1010.4
20260507163650 54 330 2.0 2.0 0.05 0.07 0.07 98 1010.4
20260507162649 54 286 0.0 0.0 0.07 0.06 0.06 98 1010.4
20260507161648 55 297 0.0 1.0 0.05 0.05 0.05 97 1010.4
20260507160647 55 277 1.0 1.0 0.07 0.04 0.04 97 1010.8
20260507155645 55 286 0.0 0.0 0.00 0.03 0.03 97 1010.8
20260507154644 55 260 0.0 0.0 0.05 0.03 0.03 97 1010.8
20260507153644 55 313 3.0 3.0 0.00 0.02 0.02 96 1010.8
20260507152642 56 304 2.0 3.0 0.07 0.02 0.02 96 1010.8
20260507151640 56 311 1.0 1.0 0.00 0.01 0.01 96 1010.8
20260507150639 56 323 2.0 2.0 0.07 0.01 0.01 95 1010.8
20260507145637 57 329 4.0 5.0 0.00 0.00 0.00 94 1010.8
20260507144637 58 281 2.0 3.0 0.00 0.00 0.00 94 1010.8
20260507143637 59 263 2.0 2.0 0.00 0.00 0.00 93 1010.4
20260507142635 59 92 5.0 6.0 0.00 0.00 0.00 91 1010.4
20260507141635 60 267 2.0 2.0 0.00 0.00 0.00 86 1010.4
20260507140634 59 274 1.0 1.0 0.00 0.00 0.00 82 1010.1
20260507135634 59 290 2.0 2.0 0.00 0.00 0.00 83 1010.8
20260507134633 60 296 0.0 1.0 0.00 0.00 0.00 87 1010.8
20260507133631 60 298 1.0 1.0 0.00 0.00 0.00 85 1010.8
20260507132631 60 288 1.0 1.0 0.00 0.00 0.00 85 1010.8
20260507131630 60 292 0.0 1.0 0.00 0.00 0.00 84 1010.4
20260507130630 60 307 2.0 2.0 0.00 0.00 0.00 82 1010.1
20260507125627 61 308 1.0 2.0 0.00 0.00 0.00 83 1010.1
20260507124625 61 27 3.0 3.0 0.00 0.00 0.00 80 1010.1
20260507123622 61 296 3.0 3.0 0.00 0.00 0.00 79 1010.1
20260507122619 61 270 1.0 1.0 0.00 0.00 0.00 79 1009.6
20260507121617 61 274 3.0 3.0 0.00 0.00 0.00 78 1010.1
20260507120615 62 276 1.0 1.0 0.00 0.00 0.00 80 1010.1
20260507115615 62 317 1.0 1.0 0.00 0.00 0.00 80 1009.6
20260507114612 61 283 0.0 1.0 0.00 0.00 0.00 80 1009.6
20260507113607 61 267 7.0 7.0 0.00 0.00 0.00 78 1009.6
20260507112602 61 254 5.0 6.0 0.00 0.00 0.00 78 1009.3
20260507111601 62 286 1.0 2.0 0.00 0.00 0.00 77 1009.3
20260507110600 61 328 5.0 6.0 0.00 0.00 0.00 78 1009.3
20260507105559 62 219 4.0 5.0 0.00 0.00 0.00 78 1009.3
20260507104559 61 246 6.0 8.0 0.00 0.00 0.00 80 1009.3
20260507103557 61 257 5.0 6.0 0.00 0.00 0.00 79 1009.0
20260507102556 60 267 3.0 3.0 0.00 0.00 0.00 84 1009.3
20260507101554 60 269 1.0 2.0 0.00 0.00 0.00 85 1009.0
20260507100554 61 308 1.0 1.0 0.00 0.00 0.00 81 1009.0
20260507095549 61 245 2.0 3.0 0.00 0.00 0.00 81 1009.0
20260507094548 61 279 1.0 1.0 0.00 0.00 0.00 82 1009.0
20260507093548 61 293 4.0 5.0 0.00 0.00 0.00 82 1009.3
20260507092543 61 315 3.0 3.0 0.00 0.00 0.00 85 1009.3
20260507091542 62 278 1.0 1.0 0.00 0.00 0.00 85 1008.6
20260507090540 62 286 1.0 1.0 0.00 0.00 0.00 82 1008.6
20260507085540 62 261 2.0 2.0 0.00 0.00 0.00 85 1009.0
20260507084539 62 295 3.0 5.0 0.00 0.00 0.00 84 1009.3
20260507083538 62 284 1.0 1.0 0.00 0.00 0.00 85 1009.3
20260507082537 62 254 3.0 3.0 0.00 0.00 0.00 85 1009.3
20260507081536 62 295 3.0 3.0 0.00 0.00 0.00 85 1009.3
20260507080535 62 309 5.0 6.0 0.00 0.00 0.00 85 1009.3
20260507075533 62 273 6.0 8.0 0.00 0.00 0.00 84 1009.6
20260507074532 63 264 5.0 6.0 0.00 0.00 0.00 85 1009.3
20260507073532 62 280 4.0 5.0 0.00 0.00 0.00 86 1009.0
20260507072532 63 281 6.0 8.0 0.00 0.00 0.00 87 1009.3
20260507071527 63 253 4.0 6.0 0.00 0.00 0.00 85 1008.6
20260507070526 63 288 4.0 5.0 0.00 0.00 0.00 86 1009.0
20260507065525 63 303 7.0 8.0 0.00 0.00 0.00 88 1009.3
20260507064521 63 273 6.0 8.0 0.00 0.00 0.00 90 1009.0
20260507063521 62 313 3.0 3.0 0.00 0.00 0.00 96 1008.6
20260507062521 62 297 4.0 5.0 0.00 0.00 0.00 98 1009.0
20260507061516 62 281 2.0 5.0 0.00 0.00 0.00 99 1009.0
20260507060512 62 283 1.0 1.0 0.00 0.00 0.00 99 1009.3
20260507055509 62 283 0.0 0.0 0.00 0.00 0.00 99 1009.3
20260507054507 62 284 0.0 1.0 0.00 0.00 0.00 99 1009.6
20260507053507 62 284 0.0 1.0 0.00 0.00 0.00 99 1010.1
20260507052503 62 284 0.0 0.0 0.00 0.00 0.00 99 1010.4
20260507051503 62 285 0.0 0.0 0.00 0.00 0.00 99 1009.6
20260507050501 61 284 0.0 0.0 0.00 0.00 0.00 98 1009.3
20260507045501 62 285 0.0 0.0 0.00 0.00 0.00 98 1009.3
20260507044500 62 284 0.0 0.0 0.00 0.00 0.00 98 1009.3
20260507043458 62 285 0.0 0.0 0.00 0.00 0.00 98 1009.3
20260507042458 62 284 0.0 0.0 0.00 0.00 0.00 97 1009.3
20260507041456 62 284 0.0 0.0 0.00 0.00 0.00 97 1009.3
20260507040455 63 284 0.0 0.0 0.00 0.00 0.00 96 1009.6
20260507035453 63 284 0.0 0.0 0.00 0.11 0.11 95 1010.1
20260507034453 63 282 2.0 2.0 0.00 0.11 0.11 94 1010.1